Location: Putaja
(61.5000°N, 22.7000°E)
Time: 14:41:37
(UTC+00:00)

Daily predictions for brighter satellites

Satellite Brightness Start Highest point End
(mag) Time Altitude Azimuth Time Altitude Azimuth Time Altitude Azimuth
IRIDIUM 104 4.4 14:48:33 10° N 14:53:49 89° ENE 14:59:04 10° S
Cosmos 1680 Rocket 4.3 14:52:03 10° NNW 14:56:48 32° NNE 15:01:32 10° E
Cosmos 773 Rocket 4.0 14:51:47 10° NNW 14:56:59 68° NE 15:02:08 10° SE
CZ-2C R/B 3.9 14:53:34 10° ESE 14:58:26 34° NE 15:03:29 10° N
NOSS 2-3 (E) 4.3 14:53:55 10° W 14:59:05 75° N 15:05:54 10° E
PSLV R/B 3.7 14:55:51 10° SSE 14:59:33 82° ENE 15:03:22 10° NNW
SeaSat 1 2.9 14:55:09 10° NE 14:59:57 48° ESE 15:04:43 10° SSW
Cosmos 1025 Rocket 3.5 14:56:31 10° SSE 15:00:38 43° E 15:04:48 10° NNE
H-2A R/B 3.0 14:57:46 10° E 15:01:50 25° NE 15:06:00 10° N
Cosmos 1544 Rocket 4.0 14:57:52 10° NNW 15:02:14 70° W 15:06:36 10° S
Okean-O 3.8 15:00:11 10° E 15:03:38 23° NE 15:07:06 10° N
SL-19 R/B 4.4 14:58:21 10° NNE 15:03:54 63° ESE 15:09:32 10° S
Cosmos 1603 4.1 14:58:33 10° NW 15:04:14 72° SW 15:09:56 10° SSE
H-2A R/B 2.4 15:00:18 10° SSE 15:04:23 68° ENE 15:08:39 10° NNW
Meteor 2-10 Rocket 4.2 15:00:18 10° NNW 15:05:34 37° NE 15:10:38 10° ESE
CZ-4B R/B 3.3 15:00:44 10° SE 15:06:17 69° ENE 15:11:57 10° NNW
Okean O Rocket 1.7 15:02:04 10° SE 15:06:25 55° ENE 15:10:45 10° NNW
SL-24 R/B 4.3 15:02:07 10° SE 15:06:29 60° ENE 15:11:19 10° NNW
SMAP 3.0 15:02:49 10° SSE 15:07:26 68° ENE 15:12:06 10° NNW
NOSS 8 (E) 4.4 15:05:19 10° W 15:08:21 62° N 15:11:59 10° E
Cosmos 2297 Rocket 2.3 15:03:56 10° SW 15:09:37 82° SE 15:15:19 10° NE
PAYLOAD B 4.3 15:05:26 10° SSE 15:10:57 89° ENE 15:16:33 10° NNW
YAOGAN 6 2.7 15:07:35 10° SSE 15:11:10 83° WSW 15:14:50 10° NNW
Cosmos 1626 3.2 15:08:23 10° SE 15:11:27 25° E 15:14:32 10° NNE
Spot 2 4.2 15:06:58 10° SSE 15:11:30 86° WSW 15:15:50 10° NNW
USA 234 3.7 15:07:17 10° E 15:13:46 61° S 15:20:17 10° WSW
AQUARIUS 4.1 15:10:31 10° SSE 15:14:58 68° ENE 15:19:29 10° NNW
Cosmos 1606 Rocket 3.8 15:11:06 10° N 15:15:21 47° ENE 15:19:36 10° SE
ATLAS 3B R/B 4.2 15:09:58 10° WNW 15:16:22 43° SW 15:23:00 10° SSE
H-2A R/B 3.2 15:13:52 10° NE 15:17:41 27° E 15:21:27 10° SSE
Cosmos 1975 Rocket 3.2 15:13:51 10° SSW 15:18:13 82° WNW 15:22:36 10° NNE
NOSS 2-2 (D) 3.5 15:17:05 10° WSW 15:20:56 80° NNW 15:25:39 11° ENE
ATLAS 5 CENTAUR R/B 3.4 15:19:18 10° SSE 15:21:51 16° ESE 15:24:32 10° E
Tsikada Rocket 4.2 15:15:55 10° S 15:22:02 55° E 15:28:07 10° NNE
Cosmos 2082 3.9 15:16:34 10° SSW 15:22:09 59° ESE 15:27:46 10° NE
FengYun 1-2 T 4.2 15:17:52 10° SSE 15:23:26 74° ENE 15:29:06 10° NNW
KORONAS-FOTON 4.0 15:19:47 10° S 15:23:37 54° E 15:27:29 10° NNE
Cosmos 2346 Rocket 4.4 15:18:06 10° S 15:24:08 75° E 15:30:14 10° NNE
CZ-2D R/B 3.9 15:21:44 10° SE 15:25:14 34° ENE 15:28:45 10° N
CZ-4C R/B 3.6 15:22:30 10° NNE 15:25:22 30° E 15:28:13 10° SSE
YAOGAN 1 3.5 15:22:32 10° ESE 15:26:13 28° NE 15:29:55 10° N
NOAA 12 4.1 15:21:18 10° SSE 15:26:33 89° WSW 15:31:51 10° NNW
Cosmos 2228 3.0 15:23:29 10° N 15:27:43 60° ENE 15:31:57 10° SSE
Cosmos 1816 Rocket 4.5 15:22:21 10° S 15:28:29 66° E 15:34:36 10° NNE
Cosmos 1400 Rocket 3.8 15:25:15 10° NNW 15:29:18 52° W 15:33:17 10° S
Aureole 3 4.3 15:26:42 10° N 15:30:10 24° NE 15:33:05 10° ESE
Cosmos 1538 Rocket 3.9 15:25:15 10° NNW 15:30:28 72° NE 15:35:39 10° SE
CZ-4C R/B 2.9 15:25:45 10° SSW 15:30:45 42° SE 15:36:07 13° ENE
SL-16 R/B 3.7 15:26:11 10° NNE 15:31:46 37° NW 15:37:20 10° WSW
NOSS 2-3 (D) 4.4 15:26:52 10° WNW 15:32:08 79° NNE 15:39:07 10° E
Helios 1A Rocket 3.9 15:29:29 10° ESE 15:32:59 26° NE 15:36:28 10° N
SL-14 R/B 4.0 15:29:31 10° SSE 15:32:59 32° E 15:36:32 10° NNE
RESURS DK-1 3.5 15:29:41 10° S 15:33:13 28° ESE 15:35:58 14° ENE
Cosmos 2112 Rocket 4.5 15:29:30 10° NNW 15:34:32 41° NE 15:39:30 10° ESE
Meteor 2-5 Rocket 4.1 15:29:54 10° SSE 15:35:01 40° E 15:40:09 10° NNE
NOSS 8 (H) 4.5 15:33:54 10° W 15:37:00 63° N 15:40:01 15° E
EP 3 3.5 15:35:43 10° W 15:37:35 62° NNW 15:38:32 24° ENE
CORIOLIS 4.3 15:37:27 10° SSE 15:42:52 81° WSW 15:48:17 10° NNW
Cosmos 2263 Rocket 2.9 15:37:53 10° S 15:42:57 35° ESE 15:47:14 14° NE
COSMOS 2406 3.7 15:39:48 10° NW 15:45:22 44° NNE 15:50:36 11° E
Cosmos 2058 Rocket 3.3 15:42:14 10° N 15:46:38 49° ENE 15:51:00 10° SE
Cosmos 1455 2.9 15:43:39 10° N 15:47:05 31° ENE 15:50:31 10° SE
Cosmos 968 Rocket 3.5 15:42:09 10° SSW 15:47:11 62° ESE 15:51:58 12° NE
Envisat 4.3 15:42:46 10° S 15:47:38 45° W 15:52:32 10° NNW
NOAA 11 4.3 15:42:33 10° SSE 15:48:04 83° WSW 15:53:38 10° NNW
ADEOS Rocket 3.2 15:42:18 10° NNE 15:48:46 78° WNW 15:54:34 10° SSW
Genesis I 3.3 15:45:30 10° WSW 15:49:22 70° NNW 15:52:09 18° ENE
NOSS 8 (F) 4.4 15:46:39 10° WNW 15:49:47 67° N 15:52:33 17° E
NOSS 3-1 (C) 3.9 15:43:21 10° WNW 15:50:01 89° NNE 15:58:04 10° ESE
Cosmos 1300 2.8 15:47:36 10° NNW 15:51:28 82° WSW 15:55:17 10° S
SL-08 R/B 4.0 15:47:21 10° NNE 15:51:52 52° WNW 15:56:23 10° SW
Aureole 3 Rocket 4.3 15:50:50 10° NNE 15:51:41 13° NNE 15:51:41 13° NNE
In-Cosmos 22 4.3 15:48:10 10° SSW 15:53:36 76° WNW 15:58:58 10° NNE
Resurs 01 Rocket 3.6 15:53:45 12° NE 15:53:45 12° NE 15:55:13 10° NNE
Timation 2 Rocket 4.4 15:47:00 10° SW 15:53:53 75° NW 16:00:09 13° NE
NOSS 2-3 (C) 4.4 15:49:02 10° WNW 15:54:27 85° NNE 16:01:38 10° ESE
Landsat 5 3.4 15:51:04 10° NNE 15:55:05 60° ESE 15:58:57 10° S
Cosmos 1486 Rocket 4.0 15:52:27 10° SSW 15:57:39 68° ESE 16:02:20 13° NE
Lacrosse 5 3.2 15:54:09 10° W 15:58:49 38° SSW 16:03:28 10° SE
ARGOS 3.5 15:55:24 10° ESE 16:00:23 41° NE 16:05:25 10° NNW
Cosmos 1726 Rocket 3.5 15:58:05 10° NNW 16:02:28 85° ENE 16:06:52 10° SSE
Cosmos 909 Rocket 4.3 15:57:23 10° W 16:03:43 61° N 16:08:25 19° ENE
USA 290 3.7 16:03:26 10° NNW 16:05:59 21° NNE 16:06:05 21° NE
ERS-2 3.9 16:07:29 15° ESE 16:07:29 15° ESE 16:08:49 10° SE
USA 229 DEB 3.8 16:00:02 10° WNW 16:07:03 88° NNE 16:14:20 11° ESE
USA 229 3.8 16:00:08 10° WNW 16:07:09 88° NNE 16:14:23 11° ESE
NOSS 2-2 (C) 3.7 16:04:50 10° W 16:08:49 70° N 16:12:03 22° ENE
COSMOS 2455 4.0 16:04:20 10° SSE 16:08:53 23° ESE 16:10:52 19° E
Cosmos 1833 Rocket 3.0 16:03:28 10° NW 16:08:56 48° NNE 16:12:57 18° E
Meteor 1-24 Rocket 3.7 16:04:10 10° S 16:09:18 52° E 16:14:27 10° NNE
CSL-04 Debris 4.4 16:05:06 10° SE 16:10:15 47° ENE 16:15:25 10° NNW
Cosmos 2082 Rocket 2.8 16:05:14 10° NW 16:10:40 41° NNE 16:14:03 21° E
Cosmos 1939 Rocket 3.0 16:08:44 10° SSE 16:12:51 79° WSW 16:16:57 10° NNW
USA 281 3.8 16:09:49 19° E 16:13:57 38° NNE 16:19:53 10° NW
Cosmos 2279 Rocket 4.1 16:08:10 10° NNW 16:14:28 82° W 16:20:45 10° S
NOSS 3-4 (A) 3.5 16:09:08 10° SW 16:15:08 71° SSE 16:19:40 21° ENE
NOSS 3-4 (C) 3.5 16:09:17 10° SW 16:15:17 70° SSE 16:19:49 21° ENE
Cosmos 2219 3.7 16:09:47 10° WSW 16:15:26 57° NW 16:20:01 16° NE
Cosmos 1315 Rocket 3.9 16:12:39 10° NNW 16:16:28 47° W 16:20:18 10° S
IRS-1C Rocket 4.0 16:13:30 10° SSE 16:18:46 84° ENE 16:24:05 10° NNW
Feng Yun 1-1 Rocket 4.3 16:14:25 10° SSE 16:19:54 80° WSW 16:25:34 10° NNW
Cosmos 1674 3.6 16:16:54 10° SW 16:20:39 50° WNW 16:24:27 10° N
COSMO-SKYMED 1 3.0 16:18:24 18° NE 16:21:17 38° E 16:25:21 10° SSE
NOSS 3-1 (A) 3.8 16:15:49 10° WNW 16:22:31 89° NNE 16:29:28 15° ESE
CZ-4 R/B 1.3 16:20:55 10° SSE 16:24:59 69° ENE 16:28:59 10° NNW
Cosmos 1503 Rocket 4.0 16:20:17 10° SSW 16:25:38 69° ESE 16:29:41 18° NE
Cosmos 2227 4.3 16:21:14 10° SSW 16:26:46 57° ESE 16:30:23 22° NE
Cosmos 1536 Rocket 4.1 16:22:48 10° SSW 16:27:10 61° WNW 16:31:37 10° N
Cosmos 2227 Rocket 2.7 16:24:00 10° WSW 16:29:36 56° NW 16:33:49 18° NE
SL-08 RB Rocket 4.0 16:27:10 16° SE 16:30:26 41° ENE 16:34:40 10° N
Ariane Rocket 3.8 16:29:51 27° E 16:31:14 31° NE 16:35:41 10° N
Cosmos 405 4.3 16:28:05 10° N 16:30:11 24° NNE 16:30:11 24° NNE
Cosmos 923 Rocket 4.0 16:26:46 10° NW 16:32:11 89° SW 16:37:32 10° SSE
ATLAS 2AS CENTAUR R/B 3.0 16:25:07 10° SW 16:33:02 74° SE 16:38:04 24° ENE
NOSS 2-2 (E) 3.8 16:29:58 10° W 16:34:10 71° N 16:36:49 29° E
CZ-4B R/B 1.6 16:35:08 43° ENE 16:35:45 49° ESE 16:39:01 10° S
CSL-04 DEB 4.5 16:33:01 18° NNE 16:36:06 59° ESE 16:40:13 10° S
SeaSat 1 2.9 16:34:02 18° NE 16:37:37 58° NW 16:42:28 10° WSW
Cosmos 1844 Rocket 3.7 16:33:06 10° SSE 16:37:38 25° ESE 16:37:42 25° ESE
CZ-2C R/B 3.4 16:32:29 10° SSE 16:37:55 79° WSW 16:43:40 10° NNW
Cosmos 158 Rocket 4.1 16:32:49 10° NW 16:38:07 79° WSW 16:43:30 10° SSE
Cosmos 2344 4.1 16:30:01 10° WNW 16:38:17 84° SSW 16:49:29 10° ESE
Cosmos 1025 Rocket 4.4 16:34:15 10° SW 16:38:20 39° WNW 16:42:29 10° N
Okean-O 2.5 16:35:11 10° SSE 16:39:37 85° ENE 16:44:07 10° NNW
Cosmos 1680 Rocket 3.4 16:34:19 10° NW 16:39:38 85° ENE 16:44:53 10° SE
H-2A R/B 1.9 16:35:38 10° SSE 16:40:40 79° ENE 16:45:53 10° NNW
Okean O Rocket 3.5 16:38:59 10° SSW 16:43:01 33° W 16:47:03 10° NNW
Cosmos 1626 2.9 16:42:52 10° SSW 16:46:29 51° WNW 16:49:59 11° N
Meteor 2-10 Rocket 4.1 16:42:27 10° NNW 16:48:03 65° W 16:53:24 10° S
Timation 1 Rocket 4.5 16:44:30 10° SW 16:50:32 76° NW 16:54:23 24° NE
Cosmos 1048 Rocket 4.5 16:49:14 10° NNW 16:54:02 38° NE 16:54:54 35° ENE
H-2A R/B 2.4 16:49:34 10° NNE 16:54:05 69° WNW 16:58:29 10° SSW
Cosmos 2297 Rocket 3.0 16:48:45 10° W 16:54:10 44° NNW 16:57:33 21° NE
HJ-1C 3.2 16:54:03 67° ESE 16:54:17 71° ENE 16:57:39 10° NNW
USA 234 3.7 16:52:59 21° ESE 16:57:24 58° SSW 17:03:53 10° W
CZ-4C R/B 4.4 16:55:52 14° N 16:58:07 33° WNW 17:01:01 10° SW
CZ-2D R/B 4.5 16:55:51 10° S 16:59:33 43° W 17:03:16 10° NNW
Meteor 2-1 Rocket 4.4 16:55:34 10° NNW 17:01:12 74° WSW 17:06:43 10° S
CSL-04 Rocket 3.6 16:56:08 10° SSE 17:01:35 84° ENE 17:07:08 10° NNW
YAOGAN 1 2.8 16:57:42 10° S 17:02:02 71° WSW 17:06:24 10° NNW
Iridium 4 Rocket 3.7 16:56:46 10° N 17:02:35 61° ENE 17:08:03 10° SSE
Cosmos-2242 3.4 16:58:48 10° N 17:02:17 42° NE 17:02:17 42° NE
Cosmos 1892 Rocket 3.4 16:59:07 10° S 17:03:28 85° E 17:06:19 21° NNE
MOS 1 Rocket 3.0 17:01:39 31° NNE 17:03:36 65° ESE 17:07:52 10° S
Meteor 1-27 4.4 16:58:11 10° NNW 17:03:43 48° ENE 17:05:18 38° ESE
Cosmos 1092 Rocket 4.1 16:59:10 10° SSE 17:05:01 46° E 17:10:51 10° NNE
ATLAS 5 CENTAUR R/B 1.8 17:01:14 10° SW 17:05:24 53° SE 17:06:05 48° ESE
Cosmos 2082 4.3 17:00:50 10° WSW 17:06:27 54° NW 17:09:44 24° NNE
Helios 1A Rocket 3.1 17:03:41 10° SSE 17:07:50 72° WSW 17:12:01 10° NNW
Cosmos 1812 Rocket 3.4 17:04:01 10° NNW 17:08:30 78° ENE 17:11:36 19° SSE
SL-14 R/B 4.4 17:05:20 10° SW 17:09:05 44° WNW 17:12:31 12° N
SKYMED 2 3.4 17:06:57 25° NNE 17:09:31 85° ESE 17:13:53 10° SSW
SJ-6B 4.1 17:11:20 27° N 17:11:20 27° N 17:13:29 10° N
RESURS DK-1 2.4 17:06:48 10° SW 17:10:56 75° NW 17:11:52 52° NNE
NOSS 2-2 (D) 3.7 17:07:33 10° WNW 17:11:47 75° NNE 17:13:02 50° E
Aureole 3 3.8 17:08:27 10° NNW 17:12:28 55° W 17:15:44 10° S
Cosmos 494 Rocket 4.5 17:11:26 10° NNW 17:16:16 39° NE 17:16:21 39° NE
Cosmos 2112 Rocket 4.3 17:11:47 10° NW 17:17:03 68° WSW 17:21:52 12° SSE
CZ-3B R/B 4.0 17:15:48 10° SW 17:17:47 17° S 17:20:09 12° SSE
Meteor 2-5 Rocket 4.3 17:12:52 10° SW 17:18:19 56° WNW 17:23:48 10° NNE
CZ-4C R/B 2.3 17:13:13 10° WSW 17:18:51 89° S 17:21:18 41° ENE
SJ 16-02 2.7 17:16:48 10° S 17:18:57 26° SSE 17:18:57 26° SSE
Nadezhda 4 Rocket 3.8 17:16:09 10° S 17:22:23 79° E 17:28:35 10° NNE
Cosmos 1455 3.3 17:19:12 10° NNW 17:22:50 44° W 17:26:29 10° SSW
Cosmos 1777 Rocket 3.9 17:19:10 10° SSW 17:24:27 77° ESE 17:26:00 47° NE
MetOp-A 4.0 17:23:08 40° SE 17:25:02 69° ENE 17:30:23 10° NNW
MOS 1 4.3 17:24:37 45° ESE 17:26:10 62° ENE 17:31:49 10° NNW
Cosmos 2263 Rocket 2.2 17:20:51 10° SW 17:26:34 78° NW 17:28:55 37° NE
Genesis I 3.6 17:23:27 10° WNW 17:27:02 53° NNW 17:27:02 53° NNW
TRAILBLAZER 4.4 17:23:27 10° WNW 17:28:05 84° NNE 17:28:26 75° E
Resurs 01 Rocket 3.3 17:31:18 21° N 17:31:18 21° N 17:33:05 10° N
Cosmos 968 Rocket 4.4 17:24:23 10° WSW 17:29:16 43° NW 17:31:59 24° NNE
Terra 4.0 17:31:32 13° NNE 17:31:32 13° NNE 17:32:26 10° N
COSMOS 2406 3.2 17:24:21 10° NW 17:30:12 82° SW 17:32:43 36° SSE
Cosmos 1354 Rocket 4.4 17:25:46 10° SW 17:31:03 63° NW 17:33:42 30° NNE
ERS-2 3.7 17:42:03 29° SSW 17:42:03 29° SSW 17:43:54 10° SSW
ARGOS 3.7 17:35:17 10° S 17:40:35 59° WSW 17:45:56 10° NNW
Lacrosse 5 4.3 17:37:32 10° W 17:40:46 17° SW 17:43:59 10° S
USA 290 4.4 17:37:35 10° NW 17:38:50 22° NW 17:38:50 22° NW
Meteor 2-13 Rocket 4.4 17:34:45 10° SSW 17:40:54 88° WNW 17:47:07 10° NNE
PSLV R/B 4.4 17:43:31 53° SSW 17:43:31 53° SSW 17:46:47 10° SSW
Cosmos 1417 Rocket 4.3 17:37:15 10° NNW 17:43:27 73° ENE 17:45:24 45° SE
Cosmos 2315 Rocket 4.5 17:37:49 10° N 17:43:05 42° NE 17:43:05 42° NE
Okean 1-7 Rocket 3.9 17:40:35 10° SSW 17:45:08 67° WNW 17:47:05 33° N
Cosmos 1553 Rocket 3.9 17:41:26 10° NNW 17:47:55 84° ENE 17:51:29 29° SSE
Cosmos 1833 Rocket 2.8 17:47:36 10° NW 17:53:12 70° SW 17:54:41 49° S
COSMOS 2455 2.7 17:47:58 10° SW 17:53:57 67° SE 17:54:02 67° SE
Cosmos 2082 Rocket 2.1 17:49:37 10° NW 17:55:25 87° NE 17:55:56 75° SE
COSMO-SKYMED 1 3.6 17:55:36 27° N 17:57:34 45° WNW 18:01:43 10° SW
USA 229 DEB 4.4 17:50:59 10° WNW 17:57:51 52° SW 18:01:49 27° SSE
USA 281 3.1 17:56:41 60° ESE 17:57:52 75° NE 18:04:27 10° NW
USA 229 4.4 17:51:05 10° WNW 17:57:56 52° SW 18:01:52 27° SSE
Cosmos 1844 4.3 17:53:18 10° SSW 17:57:10 41° S 17:57:10 41° S
Cosmos 2026 Rocket 3.8 17:53:19 10° S 17:59:26 75° E 18:05:41 10° NNE
NOSS 2-2 (C) 3.9 17:55:14 10° WNW 17:59:27 83° WNW 17:59:27 83° WNW
CZ-4 R/B 3.8 17:57:07 10° SW 18:00:24 23° W 18:03:39 10° NW
Cosmos 2219 4.3 17:55:28 10° WNW 18:00:39 34° N 18:01:56 30° NNE
Cosmos 909 Rocket 4.0 17:58:21 10° WNW 18:04:40 73° NNE 18:05:19 67° ENE
NOSS 3-4 (A) 3.5 17:59:54 10° W 18:06:08 77° N 18:07:06 65° NE
NOSS 3-4 (C) 3.5 18:00:03 10° W 18:06:18 77° N 18:07:15 65° NE
CZ-4B R/B 3.6 18:08:13 25° WNW 18:08:13 25° WNW 18:10:40 10° WSW
S3M 3.8 18:03:31 10° NNW 18:09:43 85° ENE 18:10:10 77° SE
Ariane Rocket 3.0 18:10:03 77° W 18:10:03 77° W 18:15:00 10° NNW
IRS-1A Rocket 4.4 18:09:38 50° S 18:11:15 77° WSW 18:17:11 10° NNW
SeaSat 1 3.8 18:13:48 29° N 18:14:35 30° NNW 18:18:51 10° WNW
Cosmos 2227 Rocket 3.3 18:09:35 10° WNW 18:14:44 33° N 18:15:38 32° N
H-2A R/B 4.0 18:16:29 10° SW 18:20:42 26° W 18:25:04 10° NNW
Cosmos 1844 Rocket 3.1 18:15:11 10° SW 18:19:25 52° SSW 18:19:25 52° SSW
Meteor 1-21 Rocket 4.5 18:17:43 10° SSW 18:23:13 64° WNW 18:25:18 38° N
ATLAS 2AS CENTAUR R/B 2.9 18:16:19 10° W 18:24:15 78° N 18:25:30 64° NE
NOSS 2-2 (E) 4.3 18:20:17 10° WNW 18:24:12 63° W 18:24:12 63° W
SPOT 3 Rocket 4.4 18:30:39 42° NNW 18:30:39 42° NNW 18:34:00 10° NNW
Cosmos 2098 Rocket 4.3 18:29:16 10° SSW 18:36:38 85° WNW 18:44:00 10° NNE
Cosmos 2297 Rocket 3.4 18:34:25 10° WNW 18:39:21 32° N 18:39:21 32° N
USA 234 4.2 18:40:20 35° SSW 18:41:19 37° SSW 18:47:19 10° W
ATLAS 5 CENTAUR R/B 3.4 18:45:25 10° W 18:47:38 30° W 18:47:38 30° W
SJ 16-02 4.0 18:55:18 10° WSW 18:55:59 14° WSW 18:55:59 14° WSW
Resurs 01 Rocket 4.2 19:08:51 17° NNW 19:08:51 17° NNW 19:09:52 10° NNW
Terra 4.4 19:10:24 13° N 19:10:24 13° N 19:11:01 10° N
CZ-4C R/B 2.9 19:01:42 10° W 19:06:30 59° WNW 19:06:30 59° WNW
Cosmos 2263 Rocket 3.4 19:05:57 10° W 19:10:38 37° NW 19:10:38 37° NW
Cosmos 2082 Rocket 3.9 19:34:05 10° NW 19:37:47 28° W 19:37:47 28° W
COSMOS 2455 4.3 19:34:06 10° WSW 19:37:12 31° W 19:37:12 31° W
USA 281 4.2 19:43:33 40° W 19:43:33 40° W 19:49:02 10° NW
Cosmos 2227 Rocket 4.2 19:54:56 10° NW 19:57:27 23° NNW 19:57:27 23° NNW
ATLAS 2AS CENTAUR R/B 3.8 20:07:53 10° WNW 20:12:56 44° WNW 20:12:56 44° WNW
Cosmos 2297 Rocket 4.5 20:19:25 10° NW 20:21:10 19° NW 20:21:10 19° NW
